Flag for U.S.A. Weather past 2 weeks in Bloomington, Illinois, U.S.A.

Now
47 °F

Low clouds.


Feels Like: 39 °F
Forecast: 44 / 50 °F
Wind: 22 mph from Northeast

Location: Bloomington / Normal

Current Time: Apr 25, 2015 at 6:57:56 PM

Latest Report: Apr 25, 2015 at 5:56 PM


Visibility: 10 mi

Pressure: 29.70 "Hg

Humidity: 93%

Dew point: 45 °F

Location of BloomingtonLocation

Historic Weather in Bloomington — Graph

°F

Bloomington temperature yesterday

Maximum temperature yesterday: 62 °F (at 1:56 PM)
Minimum temperature yesterday: 38 °F (at 3:56 AM)
Average temperature yesterday: 52 °F

Past Weeks' High & Low Weather Summary

 TemperatureHumidityPressure
High80 °F (Apr 18, 2:56 PM)100% (Apr 16, 6:56 AM)30.32 "Hg (Apr 16, 6:56 AM)
Low34 °F (Apr 23, 4:56 AM)18% (Apr 23, 5:56 PM)29.34 "Hg (Apr 20, 2:56 AM)
Average55 °F60%29.97 "Hg
* Reported Apr 10 4:56 PM — Apr 25 4:56 PM, Bloomington, Weather by CustomWeather, © 2015

Note: Actual official high and low records may vary slightly from our data, if they occured in-between our weather recording intervals... More about our weather records

Advertising

Bloomington weather history for previous 24 hours

 ConditionsComfort  
Time TempWeatherWind HumidityBarometerVisibility
4:56 PM
Sat, Apr 25
48 °FLow clouds.22 mph93%29.66 "Hg10 mi
4:02 PM48 °FLow clouds.21 mph94%29.62 "Hg10 mi
3:56 PM50 °FOvercast.20 mph89%29.63 "Hg10 mi
2:56 PM50 °FLow clouds.18 mph89%29.62 "Hg10 mi
1:56 PM49 °FLow clouds.22 mph93%29.62 "Hg10 mi
12:56 PM46 °FLight rain. Low clouds.23 mph97%29.63 "Hg7 mi
11:56 AM47 °FLight rain. Fog.21 mph100%29.64 "Hg4 mi
10:56 AM49 °FThundershowers. Fog.13 mph100%29.69 "Hg1 mi
9:56 AM48 °FLight rain. Fog.15 mph100%29.66 "Hg1 mi
8:56 AM48 °FLight rain. Fog.18 mph100%29.64 "Hg1 mi
7:56 AM49 °FFog.14 mph96%29.66 "Hg5 mi
6:56 AM49 °FOvercast.16 mph89%29.67 "Hg10 mi
5:56 AM49 °FOvercast.15 mph89%29.67 "Hg10 mi
4:56 AM49 °FOvercast.13 mph89%29.70 "Hg10 mi
3:56 AM49 °FMostly cloudy.10 mph89%29.72 "Hg10 mi
2:56 AM50 °FOvercast.10 mph83%29.74 "Hg10 mi
1:56 AM51 °FLight rain. Passing clouds.8 mph80%29.76 "Hg10 mi
12:56 AM53 °FOvercast.8 mph61%29.79 "Hg10 mi
11:56 PM
Fri, Apr 24
54 °FOvercast.10 mph53%29.81 "Hg10 mi
10:56 PM54 °FOvercast.8 mph53%29.83 "Hg10 mi
9:56 PM55 °FOvercast.7 mph49%29.85 "Hg10 mi
8:56 PM57 °FOvercast.10 mph39%29.83 "Hg10 mi
7:56 PM57 °FOvercast.14 mph39%29.83 "Hg10 mi
Weather by CustomWeather, © 2015

See weather overviewHow to use our weather pages